Stündliche Wetter Bolshie Ozerki

Heute, 26 Januar, Dienstag

Zeit Temperatur Niederschläge Wind Luftdruck Luftfeuchtigkeit
00:00 -3°C° 0 mm 6 m/S 735 mmHg 95%
01:00 -3°C° 0 mm 6 m/S 734 mmHg 95%
02:00 -3°C° 0 mm 6 m/S 734 mmHg 94%
03:00 -3°C° 0 mm 7 m/S 733 mmHg 92%
04:00 -4°C° 0 mm 7 m/S 733 mmHg 91%
05:00 -6°C° 0 mm 8 m/S 732 mmHg 89%
06:00 -5°C° 0 mm 8 m/S 732 mmHg 89%
07:00 -5°C° 0 mm 9 m/S 731 mmHg 90%
08:00 -4°C° 0 mm 9 m/S 731 mmHg 90%
09:00 -4°C° 0.2 mm 9 m/S 730 mmHg 92%
10:00 -4°C° 0.2 mm 9 m/S 730 mmHg 95%
11:00 -4°C° 0.2 mm 9 m/S 730 mmHg 97%
12:00 -4°C° 0.2 mm 9 m/S 730 mmHg 98%
13:00 -2°C° 0.2 mm 8 m/S 730 mmHg 98%
14:00 -2°C° 0.2 mm 8 m/S 730 mmHg 99%
15:00 -2°C° 0 mm 7 m/S 730 mmHg 94%
16:00 -3°C° 0 mm 7 m/S 731 mmHg 90%
17:00 -3°C° 0 mm 7 m/S 731 mmHg 85%
18:00 -3°C° 0 mm 7 m/S 731 mmHg 85%
19:00 -3°C° 0 mm 7 m/S 731 mmHg 85%
20:00 -3°C° 0 mm 7 m/S 732 mmHg 85%
21:00 -3°C° 0.2 mm 7 m/S 732 mmHg 88%
22:00 -3°C° 0.2 mm 7 m/S 732 mmHg 91%
23:00 -3°C° 0.2 mm 7 m/S 732 mmHg 95%

Morgen, 27 Januar, Mittwoch

Zeit Temperatur Niederschläge Wind Luftdruck Luftfeuchtigkeit
00:00 -3°C° 0.4 mm 7 m/S 731 mmHg 94%
01:00 -3°C° 0.4 mm 7 m/S 731 mmHg 94%
02:00 -3°C° 0.4 mm 6 m/S 731 mmHg 94%
03:00 -3°C° 0 mm 6 m/S 731 mmHg 92%
04:00 -4°C° 0 mm 6 m/S 731 mmHg 91%
05:00 -4°C° 0 mm 6 m/S 731 mmHg 89%
06:00 -4°C° 0 mm 6 m/S 731 mmHg 89%
07:00 -5°C° 0 mm 6 m/S 732 mmHg 90%
08:00 -5°C° 0 mm 6 m/S 732 mmHg 90%
09:00 -5°C° 0 mm 6 m/S 732 mmHg 90%
10:00 -5°C° 0 mm 5 m/S 733 mmHg 90%
11:00 -5°C° 0 mm 5 m/S 733 mmHg 90%
12:00 -4°C° 0 mm 4 m/S 733 mmHg 91%
13:00 -4°C° 0 mm 4 m/S 733 mmHg 91%
14:00 -4°C° 0 mm 3 m/S 733 mmHg 92%
15:00 -4°C° 0 mm 3 m/S 733 mmHg 92%
16:00 -4°C° 0 mm 2 m/S 733 mmHg 93%
17:00 -4°C° 0 mm 2 m/S 734 mmHg 94%
18:00 -2°C° 0 mm 1 m/S 733 mmHg 93%
19:00 -2°C° 0 mm 1 m/S 733 mmHg 92%
20:00 -2°C° 0 mm 1 m/S 733 mmHg 92%
21:00 -2°C° 0 mm 1 m/S 733 mmHg 91%
22:00 -1°C° 0 mm 1 m/S 734 mmHg 91%
23:00 -1°C° 0 mm 1 m/S 734 mmHg 91%

übermorgen, 28 Januar, Donnerstag

Zeit Temperatur Niederschläge Wind Luftdruck Luftfeuchtigkeit
00:00 -3°C° 0.1 mm 2 m/S 733 mmHg 93%
01:00 -2°C° 0.1 mm 2 m/S 733 mmHg 94%
02:00 -2°C° 0.1 mm 2 m/S 733 mmHg 96%
03:00 -2°C° 0.2 mm 3 m/S 733 mmHg 97%
04:00 -1°C° 0.2 mm 3 m/S 733 mmHg 97%
05:00 -1°C° 0.2 mm 3 m/S 732 mmHg 98%
06:00 -2°C° 0 mm 4 m/S 732 mmHg 97%
07:00 -2°C° 0 mm 4 m/S 732 mmHg 97%
08:00 -2°C° 0 mm 4 m/S 732 mmHg 96%
09:00 -2°C° 0 mm 5 m/S 732 mmHg 96%
10:00 -2°C° 0 mm 5 m/S 732 mmHg 96%
11:00 -2°C° 0 mm 5 m/S 732 mmHg 96%
12:00 -2°C° 0.1 mm 5 m/S 731 mmHg 96%
13:00 -2°C° 0.1 mm 5 m/S 731 mmHg 97%
14:00 -2°C° 0.1 mm 5 m/S 731 mmHg 97%
15:00 -2°C° 0.2 mm 5 m/S 731 mmHg 96%
16:00 -2°C° 0.2 mm 5 m/S 731 mmHg 96%
17:00 -2°C° 0.2 mm 5 m/S 731 mmHg 96%
18:00 -2°C° 0.1 mm 5 m/S 731 mmHg 95%
19:00 -2°C° 0.1 mm 5 m/S 730 mmHg 94%
20:00 -2°C° 0.1 mm 5 m/S 730 mmHg 94%
21:00 -2°C° 0 mm 5 m/S 730 mmHg 95%
22:00 -2°C° 0 mm 5 m/S 730 mmHg 95%
23:00 -2°C° 0 mm 5 m/S 730 mmHg 96%

29 Januar, Freitag

Zeit Temperatur Niederschläge Wind Luftdruck Luftfeuchtigkeit
00:00 -2°C° 0.1 mm 4 m/S 730 mmHg 97%
01:00 -2°C° 0.1 mm 4 m/S 730 mmHg 97%
02:00 -1°C° 0.1 mm 3 m/S 729 mmHg 97%
03:00 -1°C° 0 mm 3 m/S 729 mmHg 97%
04:00 -1°C° 0 mm 3 m/S 729 mmHg 97%
05:00 -1°C° 0 mm 3 m/S 729 mmHg 97%
06:00 -1°C° 0 mm 3 m/S 728 mmHg 96%
07:00 -2°C° 0 mm 3 m/S 728 mmHg 96%
08:00 -2°C° 0 mm 2 m/S 728 mmHg 95%
09:00 -2°C° 0 mm 3 m/S 727 mmHg 94%
10:00 -2°C° 0 mm 3 m/S 727 mmHg 93%
11:00 -1°C° 0 mm 3 m/S 726 mmHg 92%
12:00 -1°C° 0 mm 3 m/S 726 mmHg 92%
13:00 -1°C° 0 mm 3 m/S 725 mmHg 91%
14:00 -2°C° 0 mm 3 m/S 724 mmHg 91%
15:00 -3°C° 0 mm 4 m/S 724 mmHg 91%
16:00 -4°C° 0 mm 4 m/S 723 mmHg 92%
17:00 -5°C° 0 mm 4 m/S 723 mmHg 93%
18:00 -5°C° 0 mm 5 m/S 723 mmHg 93%
19:00 -5°C° 0 mm 5 m/S 722 mmHg 94%
20:00 -5°C° 0 mm 6 m/S 722 mmHg 94%
21:00 -6°C° 0.1 mm 6 m/S 722 mmHg 93%
22:00 -8°C° 0.1 mm 6 m/S 722 mmHg 91%
23:00 -9°C° 0.1 mm 6 m/S 722 mmHg 90%

30 Januar, Samstag

Zeit Temperatur Niederschläge Wind Luftdruck Luftfeuchtigkeit
00:00 -8°C° 0 mm 5 m/S 722 mmHg 90%
01:00 -10°C° 0 mm 5 m/S 722 mmHg 90%
02:00 -10°C° 0 mm 4 m/S 722 mmHg 90%
03:00 -9°C° 0 mm 4 m/S 722 mmHg 91%
04:00 -9°C° 0 mm 4 m/S 722 mmHg 92%
05:00 -10°C° 0 mm 5 m/S 722 mmHg 93%
06:00 -10°C° 0.1 mm 5 m/S 722 mmHg 94%
07:00 -8°C° 0.1 mm 5 m/S 722 mmHg 94%
08:00 -8°C° 0.1 mm 5 m/S 722 mmHg 94%
09:00 -8°C° 0.1 mm 5 m/S 722 mmHg 93%
10:00 -7°C° 0.1 mm 5 m/S 722 mmHg 91%
11:00 -8°C° 0.1 mm 6 m/S 723 mmHg 90%
12:00 -8°C° 0.1 mm 6 m/S 723 mmHg 90%
13:00 -8°C° 0.1 mm 6 m/S 723 mmHg 89%
14:00 -8°C° 0.1 mm 6 m/S 723 mmHg 89%
15:00 -8°C° 0 mm 6 m/S 723 mmHg 90%
16:00 -8°C° 0 mm 5 m/S 724 mmHg 90%
17:00 -8°C° 0 mm 5 m/S 724 mmHg 91%
18:00 -10°C° 0 mm 5 m/S 724 mmHg 91%
19:00 -9°C° 0 mm 4 m/S 724 mmHg 91%
20:00 -9°C° 0 mm 4 m/S 724 mmHg 92%
21:00 -10°C° 0 mm 4 m/S 725 mmHg 92%
22:00 -10°C° 0 mm 4 m/S 725 mmHg 92%
23:00 -10°C° 0 mm 3 m/S 725 mmHg 93%

31 Januar, Sonntag

Zeit Temperatur Niederschläge Wind Luftdruck Luftfeuchtigkeit
00:00 -10°C° 0 mm 4 m/S 725 mmHg 93%
01:00 -10°C° 0 mm 4 m/S 725 mmHg 93%
02:00 -10°C° 0 mm 4 m/S 725 mmHg 94%
03:00 -10°C° 0 mm 4 m/S 725 mmHg 94%
04:00 -9°C° 0 mm 4 m/S 725 mmHg 94%
05:00 -9°C° 0 mm 4 m/S 725 mmHg 94%
06:00 -10°C° 0 mm 4 m/S 725 mmHg 95%
07:00 -10°C° 0 mm 4 m/S 726 mmHg 95%
08:00 -11°C° 0 mm 4 m/S 726 mmHg 95%
09:00 -10°C° 0 mm 4 m/S 726 mmHg 94%
10:00 -11°C° 0 mm 5 m/S 727 mmHg 92%
11:00 -10°C° 0 mm 5 m/S 727 mmHg 91%
12:00 -10°C° 0 mm 5 m/S 727 mmHg 90%
13:00 -10°C° 0 mm 5 m/S 727 mmHg 90%
14:00 -10°C° 0 mm 5 m/S 727 mmHg 89%
15:00 -10°C° 0 mm 5 m/S 728 mmHg 89%
16:00 -11°C° 0 mm 5 m/S 728 mmHg 90%
17:00 -10°C° 0 mm 4 m/S 728 mmHg 90%
18:00 -11°C° 0 mm 5 m/S 728 mmHg 91%
19:00 -11°C° 0 mm 5 m/S 728 mmHg 92%
20:00 -11°C° 0 mm 5 m/S 728 mmHg 93%
21:00 -11°C° 0.1 mm 6 m/S 728 mmHg 92%
22:00 -10°C° 0.1 mm 6 m/S 729 mmHg 92%
23:00 -10°C° 0.1 mm 6 m/S 729 mmHg 91%
Mehr zeigen

Wir brauchen deine Erlaubnis

Meteoprog und unser Service Anbieter werden persönliche Daten aufbewahren, so wie Cookies, Geräte Bezeichnung oder ähnliche Technologien von deinem Gerät und Prozess, so wie Persönliche Daten Inhalte und Werbungen, genauso wie social Media und den Verkehr zu analysieren.

  • Aufbewahrung und/oder Zugang zu deiner Geräte Informationen.

    Cookies, Geräte Bezeichnung oder andere Informationen, können aufbewahrt oder Zugang zu deinem Gerät erhalten, für den Grund, der oben angegeben wird.

  • Personalisierte Werbung und Inhalte, Messungen, Einblick in das Publikum und Produkt Entwicklung.

    Werbungen und Inhalte können personalisiert werden, basierend auf ein Profil. Mehr Daten können besser personalisierte Werbungen und Inhalte hinzufügen. Werbung und Inhalte können gezeigt und gemessen werden. Einblicke über das Publikum, welche die Werbung gesehen haben und den Inhalt, können abgeleitet werden. So wie Daten können genutzt werden, um es zu verbessern oder die Benutzer Erfahrung zu verbessern das System und die Software.

Wenn du “Ich stimme zu” klickst, erlaubst du uns, die Cookies zu benutzen die Geräte Bezeichnung, den Web oder ähnliche Technologien zu benutzen. Deine Settings, können in deinem Gerät bei deinem Browser geändert werden.

Für den bestimmten Zweck, berechtigten Interessen beruhen darauf, mehr als auf den Inhalt. Du kannst mehr darüber in unseren Privaten und Cookie Politik lesen.